Погода в Оксфорде

Великобритания     51°45′07″N   1°15′30″W
темп.,
°C
ветер,
м/с
пор.,
м/с
влажн.,
%
обл.,
%
осадки,
мм/ч
давл.,
гПа
погр.,
м
16 мая, вс
вс1601:00+5юз379685 0.8 999123
04:00+5юз3596100 0.0 99991
07:00+7ююз269568 0.0 999197
10:00+10ю358692 0.3 998540
13:00+12ююз5680100 1.4 997855
16:00+11ю5792100 1.6 996539
19:00+11юв2394100 3.1 995215
22:00+9сз2495100 2.9 99680
17 мая, пн
пн1701:00+7зсз23955 2.9 99939
04:00+5зсз239644 0.0 100154
07:00+7зсз259548 0.0 1003181
10:00+12сз458254 0.2 1005848
13:00+14з347294 1.6 10061364
16:00+14зсз4478100 3.1 1006921
19:00+12сз5789100 6.5 1007386
22:00+8зсз229384 1.3 100937
18 мая, вт
вт1801:00+6зсз2292100 1.4 101013
04:00+5зюз239489 0.0 101149
07:00+7зюз2391100 0.0 1012112
10:00+11з567859 0.1 1013904
13:00+14з566527 0.5 10131687
16:00+14з577429 1.4 10131376
19:00+12з59855 2.5 1014663
22:00+7зюз389543 0.4 1014149
19 мая, ср
ср1901:00+6зюз3596100 0.4 101489
04:00+6зсз2296100 0.4 101420
07:00+8ссз2591100 0.6 1016213
10:00+12сз457615 0.1 1017804
13:00+14сз456448 0.8 10181627
16:00+13ссз47834 1.8 1020803
19:00+12сз488315 2.6 1021329
22:00+7зсз34915 0.1 102453
20 мая, чт
чт2001:00+5з22890 0.1 102512
04:00+4зюз229225 0.0 102615
07:00+7юз259210 0.0 1026147
10:00+12зюз5679100 0.0 1025844
13:00+15зюз6770100 0.3 10241396
16:00+14зюз6773100 0.4 10231225
19:00+12юз6986100 0.8 1021660
22:00+10юз61190100 0.2 1020600